Location: Fornova de Taro
(44.7000°N, 10.1000°E)
Time: 01:38:02
(UTC+00:00)

Cosmos 1408 - Pass Details

Date: 26 May 2022
Orbit: 447 x 484 km, 82.6° (Epoch: 26 June)

Event Time Altitude Azimuth Distance (km) Brightness Sun altitude
Exits shadow 02:15:23 - 161° (SSE) 2,370 5.8 -12.6°
Reaches altitude 10° 02:17:14 10° 151° (SSE) 1,664 5.1 -12.4°
Maximum altitude 02:20:23 28° 91° (E) 931 4.5 -12.0°
Drops below altitude 10° 02:23:33 10° 31° (NNE) 1,665 6.7 -11.6°
Sets 02:25:49 0° 20° (NNE) 2,543 7.5 -11.3°
